1505635200.66,40428,13.06,73508.5,3.61,3.85,3.85,0,*73
1505635201.89,40429,13.06,73512.8,3.63,3.75,3.75,0,*70
1505635203.15,40430,13.0,73520.5,3.61,3.79,3.79,0,*7A
1505635204.37,40431,13.06,73518.0,3.63,3.97,3.97,0,*79
1505635205.55,40432,13.0,73494.8,3.65,3.81,3.81,0,*7C
1505635206.73,40433,13.0,73492.5,3.65,3.55,3.63,0,*78
1505635207.91,40434,13.0,73498.8,3.65,3.29,3.29,0,*7A
1505635209.12,40435,13.0,73506.0,3.65,2.95,3.07,0,*71
1505635210.3,40436,13.0,73508.5,3.65,2.95,2.95,0,*78
1505635211.5,40437,13.0,73506.3,3.63,2.95,3.03,0,*71
1505635212.74,40438,13.0,73502.3,3.63,3.07,3.15,0,*73
1505635213.95,40439,13.0,73496.3,3.65,3.29,3.33,0,*7C
1505635215.19,40440,13.0,73502.3,3.65,3.41,3.41,0,*79
1505635216.44,40441,13.06,73506.8,3.65,3.41,3.41,0,*78
1505635217.68,40442,13.06,73502.3,3.65,3.41,3.41,0,*7B
1505635218.85,40443,13.0,73502.8,3.65,3.55,3.55,0,*7A
1505635220.05,40444,13.0,73500.0,3.67,3.63,3.63,0,*7F
1505635221.28,40445,13.06,73502.8,3.65,3.53,3.53,0,*7C
1505635222.5,40446,13.0,73514.3,3.65,3.19,3.23,0,*76
1505635223.76,40447,13.0,73532.3,3.67,3.23,3.33,0,*7D
1505635224.96,40448,13.0,73510.5,3.67,3.55,3.55,0,*73
1505635226.18,40449,13.0,73506.0,3.67,3.55,3.53,0,*74
1505635227.38,40450,13.0,73508.3,3.65,3.55,3.53,0,*7E
1505635228.56,40451,13.0,73514.5,3.65,3.63,3.55,0,*7C
1505635229.76,40452,13.0,73516.0,3.67,3.63,3.63,0,*78
1505635230.96,40453,13.0,73504.3,3.67,3.55,3.55,0,*79
1505635232.18,40454,13.0,73500.8,3.71,3.49,3.55,0,*74
1505635233.43,40455,13.0,73498.3,3.71,3.03,3.11,0,*7B
1505635234.69,40456,13.06,73502.3,3.71,2.85,2.77,0,*76
1505635235.94,40457,13.0,73498.3,3.71,2.55,2.55,0,*7A
1505635237.17,40458,13.0,73498.0,3.65,2.39,2.39,0,*70
1505635238.35,40459,13.06,73508.3,3.65,2.27,2.27,0,*71
1505635239.53,40460,13.0,73510.8,3.65,2.27,2.35,0,*78
1505635240.77,40461,13.0,73508.8,3.65,2.39,2.39,0,*7A
1505635241.94,40462,13.0,73508.0,3.63,2.35,2.31,0,*7B
1505635243.16,40463,13.0,73504.0,3.63,2.25,2.21,0,*7A
1505635244.4,40464,13.06,73520.0,3.61,2.21,2.21,0,*7B
1505635245.66,40465,13.06,73518.3,3.61,2.47,2.43,0,*7E
1505635246.9,40466,13.0,73514.8,3.61,2.55,2.55,0,*79
1505635248.16,40467,13.06,73516.0,3.57,2.47,2.47,0,*7D
1505635249.4,40468,13.06,73514.0,3.57,2.27,2.25,0,*70
1505635250.65,40469,13.06,73508.5,3.57,2.01,2.05,0,*77
1505635251.83,40470,13.06,73514.8,3.59,2.27,2.27,0,*75
1505635253.1,40471,13.06,73512.3,3.57,2.17,2.17,0,*7A
1505635254.33,40472,13.06,73506.3,3.57,2.27,2.25,0,*7B
1505635255.59,40473,13.0,73516.3,3.57,2.17,2.13,0,*7C
1505635256.8,40474,13.06,73514.5,3.55,2.39,2.35,0,*71
1505635258.02,40475,13.0,73520.3,3.55,2.73,2.69,0,*77
1505635259.26,40476,13.06,73524.5,3.55,2.81,2.81,0,*7F
1505635260.52,40477,13.06,73530.5,3.53,2.81,2.81,0,*78
1505635261.75,40478,13.06,73524.0,3.55,2.89,2.89,0,*71
1505635262.96,40479,13.06,73540.5,3.55,2.61,2.59,0,*7B
1505635264.17,40480,13.0,73532.0,3.55,2.69,2.61,0,*7E
1505635265.43,40481,13.06,73524.8,3.53,2.81,2.77,0,*78
1505635266.66,40482,13.0,73534.0,3.53,2.85,2.91,0,*77
1505635267.88,40483,13.0,73516.0,3.53,2.25,2.31,0,*76
1505635269.12,40484,13.0,73500.3,3.55,2.13,2.17,0,*76
1505635270.38,40485,13.0,73490.0,3.53,2.59,2.59,0,*75
1505635271.63,40486,13.06,73496.5,3.53,2.85,2.85,0,*76
1505635272.84,40487,13.0,73502.8,3.53,2.65,2.65,0,*77
1505635274.02,40488,13.0,73506.8,3.51,2.31,2.35,0,*7E
1505635275.25,40489,13.0,73496.0,3.49,2.61,2.55,0,*75
1505635276.46,40490,13.0,73488.3,3.51,2.43,2.35,0,*72
1505635277.66,40491,13.0,73496.5,3.51,2.25,2.31,0,*77
1505635278.92,40492,13.0,73502.8,3.49,2.51,2.51,0,*78
1505635280.19,40493,13.06,73502.0,3.49,2.51,2.43,0,*7A
1505635281.45,40494,13.06,73500.5,3.49,2.43,2.43,0,*7E
1505635282.71,40495,13.0,73496.5,3.49,2.51,2.43,0,*7C
1505635283.97,40496,13.06,73498.5,3.49,2.81,2.89,0,*74
1505635285.2,40497,13.06,73498.8,3.51,3.19,3.19,0,*74
1505635286.4,40498,13.06,73500.0,3.51,3.25,3.37,0,*78
1505635287.66,40499,13.0,73502.0,3.49,3.23,3.19,0,*7A
1505635288.89,40500,13.06,73504.0,3.51,3.03,3.03,0,*7B
1505635290.15,40501,13.06,73508.8,3.53,2.85,2.85,0,*78
1505635291.37,40502,13.06,73510.3,3.51,2.85,2.85,0,*79
1505635292.55,40503,13.0,73508.8,3.51,2.95,2.91,0,*7C
1505635293.75,40504,13.0,73504.3,3.51,2.85,2.91,0,*7A
1505635294.99,40505,13.0,73502.3,3.51,3.03,3.07,0,*7A
1505635296.17,40506,13.06,73504.3,3.51,3.25,3.29,0,*71
1505635297.41,40507,13.06,73510.0,3.51,3.15,3.15,0,*7C
1505635298.61,40508,13.06,73510.3,3.51,2.85,2.91,0,*76
1505635299.82,40509,13.0,73492.3,3.51,2.65,2.59,0,*7D
1505635301.03,40510,13.06,73492.3,3.51,2.35,2.43,0,*7B
1505635302.26,40511,13.0,73490.0,3.51,2.01,2.09,0,*73
1505635303.52,40512,13.0,73490.8,3.49,2.05,2.09,0,*7D
1505635304.77,40513,13.0,73506.0,3.49,2.09,2.05,0,*7C
1505635306.03,40514,13.0,73514.8,3.45,2.47,2.51,0,*7C
1505635307.29,40515,13.0,73518.3,3.45,2.89,2.85,0,*76
1505635308.55,40516,13.06,73514.3,3.49,3.15,3.15,0,*75
1505635309.79,40517,13.0,73506.8,3.49,3.03,2.99,0,*76
1505635310.99,40518,13.06,73492.3,3.49,2.99,2.99,0,*7B
1505635312.18,40519,13.06,73480.0,3.51,2.91,2.91,0,*73
1505635313.35,40520,13.06,73472.3,3.51,2.95,2.91,0,*7D
1505635314.56,40521,13.0,73472.5,3.51,2.95,3.03,0,*76
1505635315.83,40522,13.06,73488.8,3.49,3.11,3.03,0,*71
1505635317.09,40523,13.0,73474.8,3.49,2.81,2.81,0,*73
1505635318.32,40524,13.06,73484.8,3.49,2.99,3.03,0,*76
1505635319.51,40525,13.0,73488.5,3.51,3.25,3.25,0,*7C
1505635320.71,40526,13.0,73496.0,3.51,3.29,3.37,0,*70
1505635321.95,40527,13.06,73492.8,3.55,3.45,3.45,0,*7A
1505635323.21,40528,13.0,73494.5,3.53,3.37,3.41,0,*72
1505635324.45,40529,13.06,73496.8,3.55,3.37,3.41,0,*75
1505635325.66,40530,13.06,73494.3,3.53,3.25,3.25,0,*7A
1505635326.86,40531,13.0,73498.5,3.53,3.29,3.25,0,*77
1505635328.1,40532,13.06,73502.3,3.55,3.41,3.41,0,*7E
1505635329.34,40533,13.0,73494.5,3.55,3.45,3.45,0,*7F
1505635330.57,40534,13.0,73488.5,3.55,3.11,3.19,0,*70
1505635331.82,40535,13.0,73502.0,3.53,2.81,2.85,0,*7B
1505635333.08,40536,13.06,73504.8,3.53,3.03,3.07,0,*78
1505635334.29,40537,13.06,73506.3,3.53,2.91,2.91,0,*7D
1505635335.53,40538,13.06,73502.0,3.55,3.11,3.11,0,*74
1505635336.76,40539,13.06,73510.5,3.55,3.11,3.07,0,*72
1505635337.98,40540,13.0,73510.3,3.55,3.19,3.19,0,*7B
1505635339.22,40541,13.0,73504.5,3.55,3.07,3.11,0,*7D
1505635340.45,40542,13.06,73498.5,3.55,2.81,2.73,0,*74
1505635341.68,40543,13.06,73496.5,3.55,2.89,2.89,0,*78
1505635342.95,40544,13.06,73510.5,3.53,3.07,3.07,0,*79
1505635344.15,40545,13.06,73498.3,3.55,3.19,2.99,0,*77
1505635345.38,40546,13.06,73494.8,3.55,2.85,2.89,0,*71
1505635346.58,40547,13.06,73500.0,3.57,2.95,2.99,0,*72
1505635347.81,40548,13.06,73504.8,3.57,3.19,3.29,0,*72
1505635349.07,40549,13.0,73510.0,3.57,3.45,3.53,0,*77
1505635350.27,40550,13.06,73504.5,3.57,3.59,3.55,0,*74
1505635351.44,40551,13.06,73500.0,3.59,3.63,3.63,0,*77
1505635352.67,40552,13.0,73494.5,3.59,3.37,3.45,0,*71
1505635353.87,40553,13.0,73496.5,3.59,3.49,3.55,0,*78
1505635355.04,40554,13.06,73484.0,3.59,3.55,3.59,0,*7E
1505635356.27,40555,13.06,73486.5,3.59,3.23,3.23,0,*73
1505635357.49,40556,13.06,73488.5,3.59,2.73,2.73,0,*70
1505635358.74,40557,13.06,73490.0,3.57,2.73,2.73,0,*7F
1505635359.93,40558,13.06,73490.5,3.59,2.61,2.61,0,*7E
1505635361.11,40559,13.06,73500.0,3.59,2.65,2.61,0,*7B
1505635362.37,40560,13.06,73490.3,3.57,2.69,2.59,0,*78
1505635363.63,40561,13.06,73488.8,3.57,2.59,2.59,0,*7A
1505635364.86,40562,13.06,73486.3,3.57,2.27,2.25,0,*7B
1505635366.12,40563,13.06,73486.8,3.57,2.13,2.13,0,*78
1505635367.38,40564,13.06,73494.5,3.57,2.25,2.25,0,*7F
1505635368.61,40565,13.06,73502.3,3.55,2.81,2.73,0,*71
1505635369.83,40566,13.0,73510.5,3.55,2.69,2.69,0,*7F
1505635371.06,40567,13.0,73502.5,3.55,3.19,3.19,0,*7E
1505635372.31,40568,13.0,73494.0,3.57,3.33,3.33,0,*73
1505635373.55,40569,13.0,73498.3,3.55,3.11,3.11,0,*70
1505635374.77,40570,13.06,73494.8,3.55,2.85,2.85,0,*78
1505635376.0,40571,13.06,73488.3,3.55,2.89,2.85,0,*75
1505635377.22,40572,13.0,73492.3,3.55,2.89,2.85,0,*76
1505635378.45,40573,13.0,73500.8,3.55,2.81,2.85,0,*7F
1505635379.68,40574,13.06,73496.0,3.55,2.89,2.89,0,*7C
1505635380.94,40575,13.06,73500.5,3.57,2.85,2.73,0,*76
1505635382.17,40576,13.06,73502.3,3.55,2.85,2.81,0,*7A
1505635383.39,40577,13.06,73508.3,3.55,2.85,2.85,0,*7F
1505635384.57,40578,13.06,73506.8,3.55,2.99,2.95,0,*7C
1505635385.8,40579,13.06,73506.3,3.55,3.33,3.33,0,*71
1505635387.04,40580,13.06,73508.8,3.55,3.45,3.45,0,*77
1505635388.24,40581,13.0,73508.5,3.57,3.59,3.59,0,*74
1505635389.5,40582,13.0,73508.5,3.57,3.67,3.71,0,*70
1505635390.74,40583,13.06,73504.5,3.59,3.75,3.75,0,*78
1505635391.91,40584,13.06,73502.8,3.59,3.55,3.55,0,*7F
1505635393.08,40585,13.06,73492.0,3.59,3.55,3.63,0,*7B
1505635394.3,40586,13.06,73494.5,3.61,3.63,3.67,0,*72
1505635395.5,40587,13.06,73496.3,3.61,3.59,3.59,0,*77
1505635396.67,40588,13.06,73496.0,3.65,3.55,3.55,0,*7C
1505635397.87,40589,13.06,73498.8,3.61,3.63,3.63,0,*79
1505635399.1,40590,13.06,73500.8,3.63,3.67,3.67,0,*73
1505635400.34,40591,13.06,73500.3,3.63,3.75,3.75,0,*72
1505635401.57,40592,13.06,73502.8,3.65,3.67,3.67,0,*77
1505635402.81,40593,13.06,73500.8,3.65,3.71,3.71,0,*76
1505635404.01,40594,13.06,73502.0,3.65,3.81,3.79,0,*76
1505635405.22,40595,13.06,73502.0,3.67,3.81,3.81,0,*72
1505635406.48,40596,13.06,73498.3,3.67,3.79,3.79,0,*71
1505635407.69,40597,13.06,73496.5,3.67,3.93,3.93,0,*70
1505635408.93,40598,13.0,73502.0,3.67,3.93,4.05,0,*77
1505635410.1,40599,13.06,73500.3,3.73,4.23,4.19,0,*72
1505635411.28,40600,13.06,73504.3,3.73,4.07,4.07,0,*78
1505635412.46,40601,13.06,73500.5,3.73,3.89,3.85,0,*75
1505635413.69,40602,13.06,73498.3,3.73,4.01,3.97,0,*72
1505635414.91,40603,13.06,73500.0,3.73,3.97,3.97,0,*7B
1505635416.14,40604,13.06,73502.0,3.73,3.71,3.79,0,*74
1505635417.37,40605,13.06,73498.0,3.75,3.37,3.29,0,*74
1505635418.62,40606,13.06,73488.3,3.75,3.07,3.03,0,*7C
1505635419.83,40607,13.06,73494.8,3.75,2.91,2.91,0,*79
1505635421.03,40608,13.0,73490.8,3.71,2.99,2.95,0,*7E
1505635422.23,40609,13.06,73494.8,3.71,2.99,2.95,0,*7F
1505635423.46,40610,13.0,73488.8,3.73,2.89,2.89,0,*79
1505635424.67,40611,13.0,73486.8,3.71,2.65,2.61,0,*7E
1505635425.92,40612,13.06,73496.0,3.71,2.89,2.85,0,*75
1505635427.15,40613,13.06,73490.3,3.67,2.69,2.61,0,*77
1505635428.4,40614,13.0,73480.0,3.67,2.69,2.69,0,*78
1505635429.63,40615,13.0,73490.0,3.67,2.69,2.61,0,*71
1505635430.89,40616,13.06,73488.5,3.67,2.59,2.59,0,*7A
1505635432.13,40617,13.06,73488.3,3.65,2.59,2.51,0,*71
1505635433.36,40618,13.06,73512.0,3.67,2.39,2.27,0,*7B
1505635434.6,40619,13.06,73510.0,3.65,2.47,2.47,0,*77
1505635435.83,40620,13.06,73498.0,3.67,2.61,2.59,0,*74
1505635437.04,40621,13.06,73504.5,3.65,2.69,2.61,0,*74
1505635438.27,40622,13.06,73492.3,3.63,2.89,2.89,0,*79
1505635439.5,40623,13.0,73476.8,3.63,3.15,3.07,0,*7B
1505635440.73,40624,13.06,73486.0,3.63,3.15,3.19,0,*73
1505635441.96,40625,13.0,73496.3,3.65,3.23,3.19,0,*71
1505635443.19,40626,13.06,73474.5,3.65,2.85,2.85,0,*7B
1505635444.41,40627,13.06,73484.0,3.65,2.73,2.73,0,*7A
1505635445.59,40628,13.0,73482.5,3.63,2.91,2.95,0,*77
1505635446.81,40629,13.06,73500.0,3.63,3.19,3.19,0,*72
1505635448.01,40630,13.0,73492.3,3.63,2.89,2.91,0,*73
1505635449.21,40631,13.06,73502.0,3.63,2.95,2.89,0,*76
1505635450.45,40632,13.06,73480.3,3.63,2.81,2.89,0,*70
1505635451.65,40633,13.06,73494.3,3.63,2.69,2.65,0,*75
1505635452.9,40634,13.06,73494.0,3.61,2.25,2.25,0,*7C
1505635454.09,40635,13.06,73498.0,3.61,2.31,2.31,0,*7D
1505635455.35,40636,13.0,73506.5,3.61,2.81,2.69,0,*78
1505635456.6,40637,13.0,73514.0,3.61,2.89,2.89,0,*7F
1505635457.84,40638,13.0,73508.8,3.61,2.69,2.69,0,*70
1505635459.1,40639,13.06,73482.3,3.61,2.81,2.77,0,*78
1505635460.32,40640,13.06,73466.3,3.59,2.85,2.85,0,*74
1505635461.54,40641,13.0,73478.8,3.59,2.85,2.85,0,*75
1505635462.71,40642,13.06,73476.5,3.59,2.31,2.31,0,*76
1505635463.94,40643,13.06,73482.5,3.59,2.21,2.17,0,*72
1505635465.17,40644,13.06,73504.5,3.57,2.61,2.69,0,*76
1505635466.41,40645,13.06,73504.5,3.57,3.03,2.99,0,*7D
1505635467.64,40646,13.0,73502.5,3.59,3.15,3.15,0,*72
1505635468.89,40647,13.06,73518.0,3.61,3.49,3.49,0,*78
1505635470.06,40648,13.06,73516.8,3.59,3.55,3.63,0,*79
1505635471.26,40649,13.06,73518.0,3.59,3.49,3.55,0,*70
1505635472.52,40650,13.0,73518.3,3.61,3.75,3.75,0,*7E
1505635473.72,40651,13.0,73508.3,3.61,3.59,3.59,0,*7F
1505635474.97,40652,13.06,73488.3,3.61,3.37,3.49,0,*75
1505635476.16,40653,13.0,73490.5,3.63,3.59,3.53,0,*75
1505635477.42,40654,13.06,73496.0,3.61,3.67,3.75,0,*79
1505635478.65,40655,13.06,73500.0,3.63,3.75,3.79,0,*75
1505635479.84,40656,13.06,73502.5,3.63,3.89,3.89,0,*7A
1505635481.04,40657,13.0,73508.0,3.65,4.05,4.11,0,*78
1505635482.25,40658,13.0,73508.8,3.71,4.15,4.15,0,*77
1505635483.46,40659,13.0,73510.0,3.71,4.07,4.07,0,*76
1505635484.68,40660,13.0,73506.8,3.73,3.97,3.97,0,*7E
1505635485.88,40661,13.0,73504.3,3.73,3.85,3.79,0,*7C
1505635487.11,40662,13.06,73498.3,3.73,4.01,4.01,0,*7C
1505635488.33,40663,13.0,73488.8,3.73,3.97,3.97,0,*7D
1505635489.51,40664,13.0,73496.0,3.73,3.89,3.85,0,*76
1505635490.74,40665,13.0,73496.5,3.73,3.71,3.71,0,*7B
1505635491.99,40666,13.0,73498.8,3.75,3.71,3.71,0,*7E
1505635493.22,40667,13.06,73496.5,3.75,3.79,3.85,0,*7C
1505635494.47,40668,13.0,73490.5,3.75,3.71,3.71,0,*70
1505635495.69,40669,13.06,73494.0,3.75,3.25,3.19,0,*7E
1505635496.92,40670,13.06,73494.3,3.77,3.03,3.03,0,*7B
1505635498.12,40671,13.0,73484.0,3.77,2.89,2.95,0,*77
1505635499.32,40672,13.06,73488.8,3.75,2.91,2.91,0,*7B
1505635500.57,40673,13.0,73490.3,3.75,2.81,2.89,0,*72
1505635501.83,40674,13.06,73494.0,3.75,2.59,2.59,0,*7D
1505635503.06,40675,13.0,73498.0,3.73,2.55,2.59,0,*76
1505635504.28,40676,13.0,73504.8,3.71,2.39,2.31,0,*73
1505635505.53,40677,13.0,73482.5,3.71,2.55,2.43,0,*7D
1505635506.79,40678,13.0,73460.8,3.71,2.43,2.43,0,*75
1505635508.03,40679,13.0,73486.8,3.71,2.85,2.85,0,*74
1505635509.22,40680,13.0,73464.0,3.65,2.91,2.91,0,*77
1505635510.47,40681,13.0,73482.5,3.67,2.69,2.69,0,*74
1505635511.65,40682,13.06,73512.5,3.65,2.27,2.27,0,*75
1505635512.86,40683,13.0,73500.3,3.65,2.47,2.27,0,*72
1505635514.06,40684,13.0,73500.8,3.65,2.47,2.35,0,*76
1505635515.3,40685,13.0,73490.0,3.65,2.51,2.47,0,*75
1505635516.54,40686,13.06,73494.5,3.65,3.07,3.07,0,*71
1505635517.72,40687,13.0,73482.8,3.65,3.29,3.29,0,*70
1505635518.93,40688,13.0,73480.0,3.65,3.23,3.29,0,*75
1505635520.17,40689,13.0,73476.5,3.65,3.11,3.07,0,*79
1505635521.35,40690,13.0,73468.3,3.65,2.95,2.91,0,*72
1505635522.58,40691,13.0,73478.3,3.67,2.69,2.61,0,*7D
1505635523.82,40692,13.0,73486.8,3.65,2.47,2.39,0,*7D
1505635525.01,40693,13.0,73484.0,3.63,2.25,2.31,0,*76
1505635526.24,40694,13.06,73488.5,3.63,2.89,2.89,0,*74
1505635527.49,40695,13.06,73464.3,3.61,2.69,2.77,0,*78
1505635528.74,40696,13.06,73474.8,3.61,2.77,2.77,0,*74
1505635529.96,40697,13.0,73478.3,3.63,3.19,3.07,0,*78
1505635531.19,40698,13.06,73496.3,3.63,3.49,3.41,0,*70
1505635532.4,40699,13.0,73510.5,3.63,3.29,3.37,0,*76
1505635533.58,40700,13.06,73504.8,3.63,3.29,3.29,0,*78
1505635534.79,40701,13.0,73502.5,3.65,3.11,2.99,0,*7E
1505635536.01,40702,13.0,73494.5,3.65,2.85,2.85,0,*7C
1505635537.19,40703,13.06,73498.5,3.63,3.29,3.29,0,*7B
1505635538.4,40704,13.06,73496.5,3.65,3.63,3.71,0,*79
1505635539.6,40705,13.06,73506.8,3.65,3.63,3.67,0,*7F
1505635540.87,40706,13.0,73502.5,3.67,3.67,3.71,0,*7D
1505635542.13,40707,13.0,73500.5,3.67,3.71,3.71,0,*7B
1505635543.34,40708,13.0,73498.0,3.67,3.89,3.93,0,*7F
1505635544.57,40709,13.06,73510.0,3.67,3.93,4.01,0,*79
1505635545.77,40710,13.0,73512.8,3.71,3.81,3.81,0,*7A
1505635546.97,40711,13.06,73518.8,3.71,3.85,3.85,0,*7B
1505635548.18,40712,13.06,73516.8,3.73,4.01,4.07,0,*7C
1505635549.38,40713,13.06,73516.0,3.75,4.11,4.07,0,*7A
1505635550.63,40714,13.06,73520.5,3.75,3.71,3.71,0,*7A
1505635551.83,40715,13.06,73518.8,3.75,3.63,3.63,0,*7B
1505635553.05,40716,13.0,73520.0,3.75,3.79,3.85,0,*7B
1505635554.28,40717,13.06,73522.8,3.75,3.97,4.07,0,*77
1505635555.45,40718,13.06,73518.5,3.77,4.15,4.23,0,*71
1505635556.63,40719,13.06,73512.3,3.77,4.11,4.15,0,*71
1505635557.86,40720,13.06,73508.8,3.79,4.05,4.11,0,*74
1505635559.06,40721,13.06,73506.5,3.79,3.93,3.93,0,*70
1505635560.26,40722,13.0,73508.5,3.81,3.49,3.59,0,*75
1505635561.47,40723,13.06,73512.8,3.81,3.79,3.81,0,*72
1505635562.73,40724,13.0,73508.5,3.79,3.75,3.75,0,*75
1505635563.98,40725,13.06,73510.5,3.79,3.33,3.41,0,*71
1505635565.16,40726,13.06,73514.3,3.81,2.99,2.99,0,*70
1505635566.4,40727,13.0,73512.5,3.79,2.73,2.73,0,*76
1505635567.62,40728,13.0,73514.5,3.81,2.85,2.85,0,*7E
1505635568.85,40729,13.0,73514.8,3.79,2.91,2.85,0,*7D
1505635570.05,40730,13.0,73526.3,3.77,3.41,3.29,0,*70
1505635571.26,40731,13.0,73524.0,3.79,3.81,3.81,0,*71
1505635572.5,40732,13.0,73524.8,3.79,4.01,4.01,0,*72
1505635573.73,40733,13.06,73522.0,3.81,4.01,4.05,0,*70
1505635574.94,40734,13.0,73526.5,3.81,3.79,3.81,0,*74
1505635576.16,40735,13.06,73526.0,3.81,3.71,3.79,0,*7A
1505635577.37,40736,13.0,73520.8,3.81,3.79,3.81,0,*76
1505635578.55,40737,13.06,73520.5,3.81,3.85,3.81,0,*74
1505635579.72,40738,13.06,73526.3,3.81,3.85,3.85,0,*7F
1505635580.92,40739,13.06,73522.3,3.85,3.85,3.97,0,*79
1505635582.11,40740,13.0,73526.5,3.83,3.81,3.85,0,*76
1505635583.34,40741,13.0,73524.0,3.83,3.63,3.71,0,*70
1505635584.54,40742,13.0,73518.0,3.83,3.89,3.89,0,*70
1505635585.77,40743,13.06,73514.3,3.83,3.89,4.01,0,*76
1505635586.94,40744,13.0,73510.3,3.85,4.23,4.23,0,*70
1505635588.15,40745,13.0,73506.8,3.83,4.33,4.41,0,*72
1505635589.33,40746,13.0,73508.5,3.85,4.41,4.41,0,*72
1505635590.53,40747,13.0,73510.3,3.87,4.33,4.37,0,*75
1505635591.74,40748,13.0,73508.5,3.87,4.27,4.33,0,*7B
1505635592.91,40749,13.0,73508.5,3.89,4.15,4.27,0,*70
1505635594.09,40750,13.0,73508.3,3.89,4.23,4.23,0,*79
1505635595.32,40751,13.06,73510.3,3.89,3.79,3.79,0,*78
1505635596.55,40752,13.0,73510.0,3.89,3.67,3.67,0,*7B
1505635597.74,40753,13.0,73510.5,3.93,3.55,3.67,0,*70
1505635598.94,40754,13.06,73512.5,3.93,3.97,3.93,0,*72
1505635600.19,40755,13.06,73518.8,3.97,4.01,4.01,0,*73
1505635601.41,40756,13.06,73512.5,3.95,3.97,3.93,0,*76
1505635602.65,40757,13.06,73514.8,3.95,3.75,3.81,0,*78
1505635603.84,40758,13.0,73514.8,3.93,3.63,3.75,0,*7D
1505635605.04,40759,13.06,73514.3,3.93,3.81,3.79,0,*7C
1505635606.27,40760,13.0,73512.3,3.93,3.71,3.71,0,*71
1505635607.49,40761,13.06,73510.8,3.93,3.45,3.33,0,*71
1505635608.71,40762,13.06,73506.5,3.93,3.49,3.37,0,*7A
1505635609.88,40763,13.06,73510.3,3.93,3.59,3.55,0,*7E
1505635611.11,40764,13.06,73512.8,3.89,3.75,3.75,0,*7E
1505635612.36,40765,13.0,73506.5,3.95,4.01,4.01,0,*72
1505635613.57,40766,13.0,73510.5,3.93,3.97,3.97,0,*77
1505635614.77,40767,13.06,73518.5,3.95,4.11,4.11,0,*70
1505635615.98,40768,13.06,73526.8,3.95,4.07,4.07,0,*7F
1505635617.17,40769,13.06,73526.5,3.95,4.19,4.19,0,*7E
1505635618.39,40770,13.06,73532.0,3.95,3.97,4.07,0,*78
1505635619.59,40771,13.06,73524.0,3.95,4.07,4.07,0,*77
1505635620.82,40772,13.06,73526.8,3.95,4.01,4.07,0,*72
1505635622.06,40773,13.06,73528.3,3.95,3.49,3.53,0,*7E
1505635623.26,40774,13.06,73522.3,3.95,3.25,3.25,0,*72
1505635624.51,40775,13.0,73518.5,3.95,3.23,3.19,0,*7A
1505635625.73,40776,13.0,73506.8,3.93,3.07,3.11,0,*71
1505635626.93,40777,13.06,73508.8,3.95,3.29,3.29,0,*71
1505635628.19,40778,13.06,73508.8,3.95,3.41,3.41,0,*7E
1505635629.37,40779,13.06,73504.5,3.93,3.81,3.81,0,*79
1505635630.55,40780,13.0,73498.3,3.93,3.93,3.93,0,*7F
1505635631.74,40781,13.0,73496.5,3.95,3.81,3.85,0,*7C
1505635632.97,40782,13.06,73496.5,3.95,3.75,3.85,0,*74
1505635634.17,40783,13.0,73494.5,3.95,3.81,3.81,0,*7A
1505635635.42,40784,13.06,73494.8,3.95,3.75,3.71,0,*79
1505635636.62,40785,13.0,73494.8,3.95,3.81,3.81,0,*7C
1505635637.87,40786,13.06,73490.3,3.95,4.01,4.01,0,*7F
1505635639.11,40787,13.06,73494.3,3.95,3.97,3.97,0,*7E
1505635640.34,40788,13.0,73490.5,3.97,4.07,4.01,0,*75
1505635641.54,40789,13.0,73492.8,3.97,3.81,3.85,0,*76
1505635642.75,40790,13.06,73498.3,3.97,3.85,3.81,0,*7E
1505635644.01,40791,13.06,73504.0,3.97,3.97,4.01,0,*73
1505635645.22,40792,13.06,73494.0,3.97,3.93,3.93,0,*78
1505635646.45,40793,13.06,73502.3,3.99,3.45,3.45,0,*77
1505635647.71,40794,13.06,73492.5,3.97,3.49,3.49,0,*7E
1505635648.91,40795,13.0,73486.8,3.97,3.63,3.63,0,*7F
1505635650.13,40796,13.06,73480.0,3.97,3.53,3.63,0,*7F
1505635651.36,40797,13.06,73484.3,3.97,3.59,3.53,0,*77
1505635652.62,40798,13.06,73482.5,3.97,3.37,3.41,0,*73
1505635653.85,40799,13.06,73482.0,3.97,3.25,3.23,0,*75
1505635655.11,40800,13.06,73484.8,3.97,2.47,2.47,0,*7C
1505635656.3,40801,13.0,73490.8,3.93,2.61,2.55,0,*7E
1505635657.48,40802,13.06,73496.3,3.93,2.65,2.61,0,*7E
1505635658.71,40803,13.06,73496.0,3.93,2.13,2.25,0,*7E
1505635659.94,40804,13.06,73506.5,3.93,2.17,2.17,0,*7C
1505635661.11,40805,13.06,73500.8,3.89,2.35,2.35,0,*76
1505635662.36,40806,13.0,73500.0,3.87,2.47,2.47,0,*7B
1505635663.59,40807,13.06,73504.5,3.85,2.77,2.77,0,*78
1505635664.84,40808,13.0,73506.0,3.83,2.81,2.77,0,*78
1505635666.06,40809,13.06,73506.0,3.85,2.69,2.69,0,*76
1505635667.31,40810,13.06,73500.5,3.83,2.89,2.89,0,*78
1505635668.56,40811,13.06,73496.8,3.83,3.11,3.03,0,*7A
1505635669.76,40812,13.06,73502.0,3.83,2.91,2.99,0,*72
1505635671.01,40813,13.06,73488.0,3.83,2.59,2.55,0,*77
1505635672.24,40814,13.06,73490.5,3.81,2.39,2.39,0,*7E
1505635673.46,40815,13.06,73496.8,3.81,2.85,2.77,0,*72
1505635674.69,40816,13.06,73498.5,3.81,2.73,2.77,0,*78
1505635675.89,40817,13.06,73492.5,3.81,2.77,2.65,0,*7E
1505635677.09,40818,13.06,73504.5,3.79,2.91,2.95,0,*71
1505635678.32,40819,13.06,73506.8,3.81,3.11,3.15,0,*77
1505635679.53,40820,13.06,73506.0,3.79,2.91,2.95,0,*7A
1505635680.7,40821,13.06,73508.8,3.81,2.99,2.99,0,*78
1505635681.95,40822,13.06,73506.3,3.79,3.23,3.19,0,*75
1505635683.2,40823,13.06,73510.0,3.79,3.23,3.23,0,*7D
1505635684.43,40824,13.06,73514.0,3.81,3.11,3.11,0,*7D
1505635685.66,40825,13.06,73524.0,3.81,3.23,3.23,0,*7C
1505635686.83,40826,13.06,73516.8,3.81,2.99,2.95,0,*73
1505635688.06,40827,13.06,73510.8,3.79,2.95,3.03,0,*77
1505635689.26,40828,13.06,73506.3,3.81,3.23,3.25,0,*77
1505635690.51,40829,13.06,73502.3,3.79,3.45,3.53,0,*70
1505635691.7,40830,13.06,73504.5,3.81,3.49,3.55,0,*75
1505635692.94,40831,13.06,73508.0,3.81,3.15,3.15,0,*79
1505635694.2,40832,13.06,73506.5,3.79,3.41,3.45,0,*79
1505635695.43,40833,13.06,73506.5,3.79,3.67,3.63,0,*78
1505635696.63,40834,13.06,73504.0,3.81,3.59,3.49,0,*7D
1505635697.83,40835,13.06,73500.0,3.83,3.85,3.85,0,*7F
1505635699.02,40836,13.06,73506.5,3.83,3.85,3.85,0,*7C
1505635700.2,40837,13.06,73506.3,3.85,3.81,3.81,0,*7B
1505635701.46,40838,13.06,73500.3,3.83,3.41,3.41,0,*72
1505635702.69,40839,13.06,73500.5,3.85,3.49,3.41,0,*7D
1505635703.89,40840,13.06,73498.3,3.83,3.25,3.29,0,*71
1505635705.12,40841,13.06,73498.5,3.85,3.15,3.15,0,*7A
1505635706.34,40842,13.06,73500.0,3.83,3.25,3.19,0,*70
1505635707.58,40843,13.06,73510.0,3.85,3.41,3.41,0,*78
1505635708.78,40844,13.06,73512.5,3.83,3.25,3.29,0,*75
1505635710.02,40845,13.06,73512.5,3.83,3.19,3.19,0,*78
1505635711.28,40846,13.06,73518.3,3.83,3.41,3.49,0,*73
1505635712.48,40847,13.06,73514.5,3.85,3.71,3.63,0,*7F
1505635713.71,40848,13.06,73516.3,3.85,3.41,3.37,0,*72
1505635714.95,40849,13.06,73514.5,3.83,3.19,3.19,0,*74
1505635716.2,40850,13.06,73508.3,3.83,2.59,2.55,0,*70
1505635717.44,40851,13.06,73502.5,3.83,2.47,2.47,0,*7D
1505635718.67,40852,13.06,73498.5,3.81,2.55,2.51,0,*78
1505635719.93,40853,13.06,73504.0,3.79,3.07,3.03,0,*7E
1505635721.16,40854,13.06,73506.0,3.79,3.29,3.23,0,*77
1505635722.39,40855,13.06,73508.3,3.81,3.15,3.15,0,*7B
1505635723.62,40856,13.06,73506.5,3.81,3.37,3.37,0,*78
1505635724.82,40857,13.06,73508.0,3.81,3.25,3.23,0,*7F
1505635726.0,40858,13.06,73514.3,3.81,3.25,3.25,0,*76
1505635727.22,40859,13.06,73516.5,3.81,3.23,3.23,0,*77
1505635728.39,40860,13.06,73524.0,3.81,2.99,2.99,0,*7D
1505635729.65,40861,13.06,73524.0,3.79,3.11,3.19,0,*73
1505635730.9,40862,13.06,73526.3,3.79,3.33,3.33,0,*78
1505635732.09,40863,13.06,73520.3,3.81,3.59,3.53,0,*74
1505635733.32,40864,13.06,73500.3,3.81,3.71,3.71,0,*79
1505635734.55,40865,13.06,73500.0,3.81,3.67,3.71,0,*7F
1505635735.78,40866,13.06,73508.0,3.81,3.45,3.45,0,*7B
1505635737.0,40867,13.06,73504.5,3.83,3.19,3.25,0,*77